Location: Helion Bumpstead
(52.0500°N, 0.4000°E)
Time: 21:09:59
(UTC+00:00)

Cosmos 2151 Rocket - Pass Details

Date: 15 November 2025
Orbit: 611 x 636 km, 82.5° (Epoch: 14 December)

Event Time Altitude Azimuth Distance (km) Brightness Sun altitude
Rises 05:58:33 0° 344° (NNW) 2,947 6.7 -12.2°
Reaches altitude 10° 06:00:53 10° 338° (NNW) 2,031 5.9 -11.9°
Maximum altitude 06:05:09 44° 267° (W) 878 3.9 -11.2°
Drops below altitude 10° 06:09:22 10° 196° (SSW) 2,003 6.2 -10.6°
Sets 06:11:39 0° 189° (S) 2,901 7.1 -10.3°
